Location: Rancho Del Sol Observatory
(38.7214°N, 120.6350°W)
Time: 02:50:49
(UTC-08:00)

A-11 Canister half - Pass Details

Date: 29 January 2020
Orbit: 1517 x 1683 km, 47.2° (Epoch: 25 February)

Event Time Altitude Azimuth Distance (km) Brightness Sun altitude
Rises 20:36:06 0° 206° (SSW) 4,815 11.8 -38.2°
Reaches altitude 10° 20:39:29 10° 199° (SSW) 3,807 11.1 -38.9°
Enters shadow 20:42:31 21° 188° (S) 2,990 10.4 -39.4°
